Location: Hermaringen
(48.5952°N, 10.2585°E)
Time: 03:55:58
(UTC+00:00)

Altair - Pass Details

Date: 16 February 2026
Orbit: 1502 x 1682 km, 47.2° (Epoch: 7 March)

Event Time Altitude Azimuth Distance (km) Brightness Sun altitude
Rises 10:00:32 0° 288° (WNW) 4,725 9.7 25.8°
Reaches altitude 10° 10:03:40 10° 283° (WNW) 3,763 9.3 26.0°
Maximum altitude 10:12:46 51° 212° (SSW) 1,953 8.9 26.6°
Drops below altitude 10° 10:22:11 10° 140° (SE) 3,886 11.0 27.2°
Sets 10:25:28 0° 136° (SE) 4,890 11.1 27.3°
